Location: Gwatt
(46.7204°N, 7.6223°E)
Time: 02:09:30
(UTC+00:00)

Courier 1B Rocket - Pass Details

Date: 25 January 2021
Orbit: 920 x 1202 km, 28.3° (Epoch: 05 March)

Event Time Altitude Azimuth Distance (km) Brightness Sun altitude
Rises 10:20:13 0° 246° (WSW) 3,903 8.2 21.9°
Reaches altitude 10° 10:26:40 10° 205° (SSW) 3,028 8.4 22.3°
Maximum altitude 10:27:17 10° 200° (SSW) 3,026 8.5 22.3°
Drops below altitude 10° 10:27:55 10° 195° (SSW) 3,042 8.7 22.3°
Sets 10:34:36 0° 155° (SSE) 4,061 9.7 22.7°
